When you browse on this site, cookies collect data to enhance your experience and personalize the content and advertising you see.
Visit our Privacy Policy to learn more. By continuing to use the site, you agree to this use of cookies and data.
  • Em Portugal
  • Lista de países
  • Para 7 dias
  • Temperatura da água
  • Mapas de satélite
  • Mapa do tempo
  • Widgets de tempo
  • user-avatar
    Iniciar Sessão

    Previsão horária em Saga

    Hoje, 19 Novembro, Segunda-feira

    Tempo Temperatura Precipitação Vento Pressão Humidade
    00:00 +13°C° 1.2 mm 3 m/s 763 mmHg 80%
    01:00 +13°C° 0.4 mm 3 m/s 763 mmHg 79%
    02:00 +12°C° 0.4 mm 3 m/s 763 mmHg 79%
    03:00 +12°C° 0 mm 3 m/s 762 mmHg 76%
    04:00 +12°C° 0.1 mm 3 m/s 762 mmHg 75%
    05:00 +12°C° 0.1 mm 3 m/s 762 mmHg 73%
    06:00 +13°C° 0.1 mm 3 m/s 763 mmHg 72%
    07:00 +13°C° 0 mm 3 m/s 763 mmHg 70%
    08:00 +13°C° 0 mm 3 m/s 763 mmHg 68%
    09:00 +14°C° 0 mm 3 m/s 763 mmHg 64%
    10:00 +16°C° 0 mm 3 m/s 763 mmHg 61%
    11:00 +17°C° 0 mm 4 m/s 763 mmHg 57%
    12:00 +17°C° 0 mm 4 m/s 763 mmHg 54%
    13:00 +17°C° 0 mm 4 m/s 763 mmHg 55%
    14:00 +17°C° 0 mm 5 m/s 763 mmHg 55%
    15:00 +18°C° 0 mm 4 m/s 763 mmHg 57%
    16:00 +17°C° 0 mm 4 m/s 763 mmHg 60%
    17:00 +15°C° 0 mm 5 m/s 763 mmHg 63%
    18:00 +14°C° 0 mm 5 m/s 764 mmHg 65%
    19:00 +14°C° 0 mm 4 m/s 764 mmHg 65%
    20:00 +14°C° 0 mm 4 m/s 764 mmHg 64%
    21:00 +13°C° 0 mm 4 m/s 765 mmHg 64%
    22:00 +13°C° 0 mm 3 m/s 765 mmHg 63%
    23:00 +13°C° 0 mm 3 m/s 765 mmHg 63%

    Amanhã, 20 Novembro, Terça-feira

    Tempo Temperatura Precipitação Vento Pressão Humidade
    00:00 +13°C° 0 mm 3 m/s 765 mmHg 62%
    01:00 +13°C° 0 mm 2 m/s 765 mmHg 62%
    02:00 +13°C° 0 mm 2 m/s 766 mmHg 61%
    03:00 +13°C° 0 mm 2 m/s 766 mmHg 60%
    04:00 +13°C° 0 mm 2 m/s 766 mmHg 61%
    05:00 +13°C° 0 mm 2 m/s 766 mmHg 61%
    06:00 +12°C° 0 mm 1 m/s 766 mmHg 62%
    07:00 +13°C° 0 mm 2 m/s 766 mmHg 59%
    08:00 +14°C° 0 mm 2 m/s 766 mmHg 57%
    09:00 +15°C° 0 mm 2 m/s 767 mmHg 54%
    10:00 +15°C° 0 mm 2 m/s 767 mmHg 51%
    11:00 +16°C° 0 mm 2 m/s 767 mmHg 48%
    12:00 +17°C° 0 mm 2 m/s 767 mmHg 45%
    13:00 +17°C° 0 mm 2 m/s 767 mmHg 44%
    14:00 +17°C° 0 mm 2 m/s 767 mmHg 44%
    15:00 +17°C° 0 mm 2 m/s 766 mmHg 44%
    16:00 +16°C° 0 mm 2 m/s 767 mmHg 46%
    17:00 +15°C° 0 mm 2 m/s 767 mmHg 48%
    18:00 +14°C° 0 mm 2 m/s 767 mmHg 50%
    19:00 +14°C° 0 mm 2 m/s 768 mmHg 51%
    20:00 +14°C° 0 mm 2 m/s 768 mmHg 51%
    21:00 +13°C° 0 mm 2 m/s 768 mmHg 52%
    22:00 +13°C° 0 mm 2 m/s 768 mmHg 53%
    23:00 +13°C° 0 mm 2 m/s 768 mmHg 53%

    Depois de amanhã, 21 Novembro, Quarta-feira

    Tempo Temperatura Precipitação Vento Pressão Humidade
    00:00 +12°C° 0 mm 1 m/s 768 mmHg 54%
    01:00 +12°C° 0 mm 1 m/s 767 mmHg 54%
    02:00 +12°C° 0 mm 1 m/s 767 mmHg 55%
    03:00 +12°C° 0 mm 1 m/s 767 mmHg 55%
    04:00 +11°C° 0 mm 1 m/s 767 mmHg 55%
    05:00 +11°C° 0 mm 1 m/s 767 mmHg 55%
    06:00 +10°C° 0 mm 2 m/s 767 mmHg 55%
    07:00 +12°C° 0 mm 1 m/s 767 mmHg 52%
    08:00 +13°C° 0 mm 1 m/s 768 mmHg 49%
    09:00 +14°C° 0 mm 1 m/s 768 mmHg 46%
    10:00 +15°C° 0 mm 1 m/s 767 mmHg 40%
    11:00 +18°C° 0 mm 1 m/s 767 mmHg 34%
    12:00 +19°C° 0 mm 1 m/s 767 mmHg 28%
    13:00 +19°C° 0 mm 1 m/s 766 mmHg 27%
    14:00 +17°C° 0 mm 0 m/s 765 mmHg 27%
    15:00 +18°C° 0 mm 0 m/s 765 mmHg 27%
    16:00 +17°C° 0 mm 0 m/s 765 mmHg 30%
    17:00 +16°C° 0 mm 0 m/s 765 mmHg 33%
    18:00 +16°C° 0 mm 0 m/s 765 mmHg 36%
    19:00 +15°C° 0 mm 0 m/s 765 mmHg 39%
    20:00 +16°C° 0 mm 1 m/s 765 mmHg 41%
    21:00 +16°C° 0 mm 1 m/s 765 mmHg 44%
    22:00 +16°C° 0.2 mm 1 m/s 765 mmHg 47%
    23:00 +15°C° 0.2 mm 1 m/s 765 mmHg 50%

    22 Novembro, Quinta-feira

    Tempo Temperatura Precipitação Vento Pressão Humidade
    00:00 +15°C° 0.2 mm 2 m/s 765 mmHg 53%
    01:00 +15°C° 0.2 mm 2 m/s 765 mmHg 54%
    02:00 +15°C° 0.2 mm 2 m/s 764 mmHg 56%
    03:00 +14°C° 0.2 mm 2 m/s 764 mmHg 57%
    04:00 +14°C° 0.2 mm 2 m/s 764 mmHg 60%
    05:00 +14°C° 0.2 mm 2 m/s 764 mmHg 62%
    06:00 +14°C° 0.2 mm 2 m/s 764 mmHg 64%
    07:00 +14°C° 0 mm 1 m/s 764 mmHg 62%
    08:00 +15°C° 0 mm 1 m/s 765 mmHg 61%
    09:00 +15°C° 0 mm 1 m/s 765 mmHg 59%
    10:00 +16°C° 0 mm 2 m/s 765 mmHg 57%
    11:00 +16°C° 0 mm 3 m/s 765 mmHg 55%
    12:00 +17°C° 0 mm 4 m/s 765 mmHg 53%
    13:00 +17°C° 0 mm 4 m/s 765 mmHg 54%
    14:00 +15°C° 0 mm 5 m/s 764 mmHg 56%
    15:00 +15°C° 0 mm 5 m/s 764 mmHg 58%
    16:00 +14°C° 0 mm 5 m/s 765 mmHg 59%
    17:00 +14°C° 0 mm 5 m/s 765 mmHg 60%
    18:00 +13°C° 0 mm 5 m/s 766 mmHg 61%
    19:00 +13°C° 0 mm 4 m/s 766 mmHg 60%
    20:00 +12°C° 0 mm 4 m/s 767 mmHg 60%
    21:00 +12°C° 0 mm 4 m/s 767 mmHg 59%
    22:00 +12°C° 0 mm 3 m/s 767 mmHg 58%
    23:00 +12°C° 0 mm 3 m/s 767 mmHg 58%

    23 Novembro, Sexta-feira

    Tempo Temperatura Precipitação Vento Pressão Humidade
    00:00 +11°C° 0 mm 3 m/s 767 mmHg 57%
    01:00 +11°C° 0 mm 3 m/s 767 mmHg 56%
    02:00 +12°C° 0 mm 2 m/s 767 mmHg 56%
    03:00 +12°C° 0 mm 2 m/s 767 mmHg 55%
    04:00 +10°C° 0 mm 2 m/s 767 mmHg 56%
    05:00 +10°C° 0 mm 2 m/s 767 mmHg 56%
    06:00 +10°C° 0 mm 2 m/s 767 mmHg 57%
    07:00 +10°C° 0 mm 2 m/s 767 mmHg 56%
    08:00 +12°C° 0 mm 2 m/s 768 mmHg 54%
    09:00 +13°C° 0 mm 2 m/s 768 mmHg 53%
    10:00 +12°C° 0 mm 3 m/s 768 mmHg 52%
    11:00 +12°C° 0 mm 3 m/s 767 mmHg 52%
    12:00 +13°C° 0 mm 3 m/s 767 mmHg 51%
    13:00 +13°C° 0 mm 3 m/s 766 mmHg 49%
    14:00 +13°C° 0 mm 4 m/s 766 mmHg 48%
    15:00 +13°C° 0 mm 4 m/s 765 mmHg 47%
    16:00 +12°C° 0 mm 4 m/s 766 mmHg 46%
    17:00 +11°C° 0 mm 4 m/s 766 mmHg 46%
    18:00 +11°C° 0 mm 3 m/s 766 mmHg 46%
    19:00 +11°C° 0 mm 3 m/s 766 mmHg 46%
    20:00 +10°C° 0 mm 3 m/s 767 mmHg 46%
    21:00 +10°C° 0 mm 3 m/s 767 mmHg 46%
    22:00 +10°C° 0 mm 3 m/s 767 mmHg 47%
    23:00 +10°C° 0 mm 3 m/s 767 mmHg 49%

    24 Novembro, Sábado

    Tempo Temperatura Precipitação Vento Pressão Humidade
    00:00 +10°C° 0 mm 3 m/s 767 mmHg 50%
    01:00 +10°C° 0 mm 3 m/s 767 mmHg 51%
    02:00 +9°C° 0 mm 3 m/s 767 mmHg 53%
    03:00 +9°C° 0 mm 3 m/s 767 mmHg 54%
    04:00 +9°C° 0 mm 3 m/s 767 mmHg 55%
    05:00 +9°C° 0 mm 3 m/s 766 mmHg 55%
    06:00 +9°C° 0 mm 3 m/s 766 mmHg 56%
    07:00 +10°C° 0 mm 3 m/s 767 mmHg 53%
    08:00 +10°C° 0 mm 3 m/s 767 mmHg 50%
    09:00 +11°C° 0 mm 3 m/s 767 mmHg 46%
    10:00 +12°C° 0 mm 4 m/s 767 mmHg 44%
    11:00 +12°C° 0 mm 4 m/s 767 mmHg 41%
    12:00 +13°C° 0 mm 5 m/s 767 mmHg 38%
    13:00 +13°C° 0 mm 5 m/s 766 mmHg 38%
    14:00 +13°C° 0 mm 5 m/s 766 mmHg 38%
    15:00 +13°C° 0 mm 5 m/s 766 mmHg 39%
    16:00 +12°C° 0 mm 5 m/s 766 mmHg 43%
    17:00 +10°C° 0 mm 5 m/s 766 mmHg 47%
    18:00 +10°C° 0 mm 5 m/s 767 mmHg 51%
    19:00 +11°C° 0 mm 4 m/s 767 mmHg 52%
    20:00 +11°C° 0 mm 4 m/s 767 mmHg 53%
    21:00 +10°C° 0 mm 4 m/s 767 mmHg 54%
    22:00 +10°C° 0 mm 3 m/s 767 mmHg 55%
    23:00 +10°C° 0 mm 3 m/s 767 mmHg 55%
    Mostrar mais